Time,TemperatureF,DewpointF,PressureIn,WindDirection,WindDirectionDegrees,WindSpeedMPH,WindSpeedGustMPH,Humidity,HourlyPrecipIn,Conditions,Clouds,dailyrainin,SolarRadiationWatts/m^2,SoftwareType,DateUTC
2013-03-08 00:00:00,27.9,26.9,30.02,NNW,344,0.0,0.5,96,0.00,CLR,,0.06,0.0,WeatherDisplay:10.37,2013-03-08 05:00:00,
2013-03-08 00:02:00,28.0,27.3,30.02,NNW,331,2.3,2.3,97,0.00,RA,,0.00,0.0,WeatherDisplay:10.37,2013-03-08 05:02:00,
2013-03-08 00:07:00,27.9,26.9,30.01,North,10,3.5,3.5,96,0.00,RA,,0.00,0.0,WeatherDisplay:10.37,2013-03-08 05:07:00,
2013-03-08 00:12:00,27.9,26.9,30.02,North,349,0.0,0.0,96,0.00,CLR,,0.00,0.0,WeatherDisplay:10.37,2013-03-08 05:12:00,
2013-03-08 00:17:00,27.9,26.9,30.01,North,355,3.5,3.5,96,0.00,CLR,,0.00,0.0,WeatherDisplay:10.37,2013-03-08 05:17:00,
2013-03-08 00:22:00,27.8,26.8,30.01,West,269,5.8,5.8,96,0.00,CLR,,0.00,0.0,WeatherDisplay:10.37,2013-03-08 05:22:00,
2013-03-08 00:27:00,27.8,26.8,30.01,NE,44,1.1,1.1,96,0.00,CLR,,0.00,0.0,WeatherDisplay:10.37,2013-03-08 05:27:00,
2013-03-08 00:32:00,27.7,26.7,30.01,NNE,22,0.0,1.3,96,0.00,CLR,,0.00,0.0,WeatherDisplay:10.37,2013-03-08 05:32:00,
2013-03-08 00:37:00,27.7,27.0,30.01,WNW,292,3.5,3.5,97,0.00,CLR,,0.00,0.0,WeatherDisplay:10.37,2013-03-08 05:37:00,
2013-03-08 00:42:00,27.7,27.0,30.01,North,11,2.3,2.3,97,0.00,CLR,,0.00,0.0,WeatherDisplay:10.37,2013-03-08 05:42:00,
2013-03-08 00:47:00,27.7,27.0,30.01,NNE,15,3.5,3.5,97,0.00,CLR,,0.00,0.0,WeatherDisplay:10.37,2013-03-08 05:47:00,
2013-03-08 00:52:00,27.7,27.0,30.01,North,5,5.8,5.8,97,0.00,CLR,,0.00,0.0,WeatherDisplay:10.37,2013-03-08 05:52:00,
2013-03-08 00:57:00,27.6,26.9,30.01,SW,229,0.0,0.0,97,0.00,CLR,,0.00,0.0,WeatherDisplay:10.37,2013-03-08 05:57:00,
2013-03-08 01:02:00,27.6,26.9,30.01,NNW,331,3.5,3.5,97,0.00,CLR,,0.00,0.0,WeatherDisplay:10.37,2013-03-08 06:02:00,
2013-03-08 01:07:00,27.6,26.9,30.01,WNW,302,5.0,5.0,97,0.00,CLR,,0.00,0.0,WeatherDisplay:10.37,2013-03-08 06:07:00,
2013-03-08 01:12:00,27.5,26.8,30.01,WNW,302,1.1,1.1,97,0.00,CLR,,0.00,0.0,WeatherDisplay:10.37,2013-03-08 06:12:00,
2013-03-08 01:17:00,27.5,26.8,30.01,East,92,1.1,1.1,97,0.00,CLR,,0.00,0.0,WeatherDisplay:10.37,2013-03-08 06:17:00,
2013-03-08 01:22:00,27.5,26.8,30.01,NNW,340,1.1,1.1,97,0.00,CLR,,0.00,0.0,WeatherDisplay:10.37,2013-03-08 06:22:00,
2013-03-08 01:27:00,27.4,26.4,30.01,NW,325,3.5,3.5,96,0.00,CLR,,0.00,0.0,WeatherDisplay:10.37,2013-03-08 06:27:00,
2013-03-08 01:32:00,27.4,26.4,30.01,NNE,33,0.0,0.0,96,0.00,CLR,,0.00,0.0,WeatherDisplay:10.37,2013-03-08 06:32:00,
2013-03-08 01:37:00,27.4,26.4,30.01,North,10,2.3,2.3,96,0.00,CLR,,0.00,0.0,WeatherDisplay:10.37,2013-03-08 06:37:00,
2013-03-08 01:42:00,27.4,26.4,30.01,NE,55,5.8,5.8,96,0.00,CLR,,0.00,0.0,WeatherDisplay:10.37,2013-03-08 06:42:00,
2013-03-08 01:47:00,27.3,26.6,30.00,North,355,4.6,4.6,97,0.00,CLR,,0.00,0.0,WeatherDisplay:10.37,2013-03-08 06:47:00,
2013-03-08 01:52:00,27.3,26.6,30.00,SW,234,3.5,3.5,97,0.00,CLR,,0.00,0.0,WeatherDisplay:10.37,2013-03-08 06:52:00,
2013-03-08 01:57:00,27.3,26.6,30.00,NW,305,2.3,2.3,97,0.00,CLR,,0.00,0.0,WeatherDisplay:10.37,2013-03-08 06:57:00,
2013-03-08 02:02:00,27.3,26.6,30.00,ENE,61,3.5,3.5,97,0.00,CLR,,0.00,0.0,WeatherDisplay:10.37,2013-03-08 07:02:00,
2013-03-08 02:07:00,27.3,26.6,30.00,North,360,0.0,0.0,97,0.00,CLR,,0.00,0.0,WeatherDisplay:10.37,2013-03-08 07:07:00,
2013-03-08 02:12:00,27.3,26.6,30.00,NW,313,2.3,2.3,97,0.00,CLR,,0.00,0.0,WeatherDisplay:10.37,2013-03-08 07:12:00,
2013-03-08 02:17:00,27.3,26.6,29.99,SSE,159,5.8,5.8,97,0.00,CLR,,0.00,0.0,WeatherDisplay:10.37,2013-03-08 07:17:00,
2013-03-08 02:22:00,27.3,26.6,29.99,NE,55,3.5,3.5,97,0.00,CLR,,0.00,0.0,WeatherDisplay:10.37,2013-03-08 07:22:00,
2013-03-08 02:27:00,27.2,26.5,29.99,NW,319,2.3,2.3,97,0.00,CLR,,0.00,0.0,WeatherDisplay:10.37,2013-03-08 07:27:00,
2013-03-08 02:32:00,27.2,26.5,29.98,NW,310,4.6,4.6,97,0.00,CLR,,0.00,0.0,WeatherDisplay:10.37,2013-03-08 07:32:00,
2013-03-08 02:37:00,27.2,26.5,29.98,NW,324,3.5,3.5,97,0.00,CLR,,0.00,0.0,WeatherDisplay:10.37,2013-03-08 07:37:00,
2013-03-08 02:42:00,27.2,26.5,29.98,NNW,335,2.3,2.3,97,0.00,CLR,,0.00,0.0,WeatherDisplay:10.37,2013-03-08 07:42:00,
2013-03-08 02:47:00,27.1,26.4,29.98,WNW,300,3.5,3.5,97,0.00,CLR,,0.00,0.0,WeatherDisplay:10.37,2013-03-08 07:47:00,
2013-03-08 02:52:00,27.1,26.4,29.98,West,276,5.8,5.8,97,0.00,CLR,,0.00,0.0,WeatherDisplay:10.37,2013-03-08 07:52:00,
2013-03-08 02:57:00,27.0,26.3,29.97,NNW,341,3.0,3.0,97,0.00,CLR,,0.00,0.0,WeatherDisplay:10.37,2013-03-08 07:57:00,
2013-03-08 03:02:00,27.0,26.3,29.97,North,10,10.4,10.4,97,0.00,CLR,,0.00,0.0,WeatherDisplay:10.37,2013-03-08 08:02:00,
2013-03-08 03:07:00,27.0,26.3,29.97,NW,321,2.3,2.3,97,0.00,CLR,,0.00,0.0,WeatherDisplay:10.37,2013-03-08 08:07:00,
2013-03-08 03:12:00,26.9,26.2,29.97,WSW,253,3.5,3.5,97,0.00,CLR,,0.00,0.0,WeatherDisplay:10.37,2013-03-08 08:12:00,
2013-03-08 03:17:00,26.9,26.2,29.97,NW,315,4.6,4.6,97,0.00,CLR,,0.00,0.0,WeatherDisplay:10.37,2013-03-08 08:17:00,
2013-03-08 03:22:00,26.9,26.2,29.97,NNE,24,4.6,4.6,97,0.00,CLR,,0.00,0.0,WeatherDisplay:10.37,2013-03-08 08:22:00,
2013-03-08 03:27:00,26.8,26.1,29.97,NNW,335,6.9,6.9,97,0.00,CLR,,0.00,0.0,WeatherDisplay:10.37,2013-03-08 08:27:00,
2013-03-08 03:32:00,26.8,26.1,29.98,SSE,163,2.3,2.3,97,0.00,CLR,,0.00,0.0,WeatherDisplay:10.37,2013-03-08 08:32:00,
2013-03-08 03:37:00,26.8,26.1,29.98,NNE,12,4.6,4.6,97,0.00,CLR,,0.00,0.0,WeatherDisplay:10.37,2013-03-08 08:37:00,
2013-03-08 03:42:00,26.8,26.1,29.98,West,274,3.5,3.5,97,0.00,CLR,,0.00,0.0,WeatherDisplay:10.37,2013-03-08 08:42:00,
2013-03-08 03:47:00,26.8,26.1,29.98,NE,55,3.5,3.5,97,0.00,CLR,,0.00,0.0,WeatherDisplay:10.37,2013-03-08 08:47:00,
2013-03-08 03:52:00,26.7,26.0,29.98,NNW,333,6.9,6.9,97,0.00,CLR,,0.00,0.0,WeatherDisplay:10.37,2013-03-08 08:52:00,
2013-03-08 03:57:00,26.7,26.0,29.97,North,10,3.5,3.5,97,0.00,CLR,,0.00,0.0,WeatherDisplay:10.37,2013-03-08 08:57:00,
2013-03-08 04:02:00,26.7,26.0,29.97,WNW,292,4.6,4.6,97,0.00,CLR,,0.00,0.0,WeatherDisplay:10.37,2013-03-08 09:02:00,
2013-03-08 04:07:00,26.7,26.0,29.98,NNW,346,3.5,3.5,97,0.00,CLR,,0.00,0.0,WeatherDisplay:10.37,2013-03-08 09:07:00,
2013-03-08 04:12:00,26.7,26.0,29.98,NW,314,3.5,3.5,97,0.00,CLR,,0.00,0.0,WeatherDisplay:10.37,2013-03-08 09:12:00,
2013-03-08 04:17:00,26.7,26.0,29.97,WNW,284,0.0,0.0,97,0.00,CLR,,0.00,0.0,WeatherDisplay:10.37,2013-03-08 09:17:00,
2013-03-08 04:22:00,26.6,25.9,29.97,NNW,335,2.3,0.0,97,0.00,CLR,,0.00,0.0,WeatherDisplay:10.37,2013-03-08 09:22:00,
2013-03-08 04:27:00,26.6,25.9,29.98,NNW,343,3.5,3.5,97,0.00,CLR,,0.00,0.0,WeatherDisplay:10.37,2013-03-08 09:27:00,
2013-03-08 04:32:00,26.6,25.9,29.97,NW,316,5.8,5.8,97,0.00,CLR,,0.00,0.0,WeatherDisplay:10.37,2013-03-08 09:32:00,
2013-03-08 04:37:00,26.6,25.9,29.97,NW,309,4.6,4.6,97,0.00,CLR,,0.00,0.0,WeatherDisplay:10.37,2013-03-08 09:37:00,
2013-03-08 04:42:00,26.6,25.9,29.97,WNW,292,5.8,5.8,97,0.00,CLR,,0.00,0.0,WeatherDisplay:10.37,2013-03-08 09:42:00,
2013-03-08 04:47:00,26.6,25.9,29.97,WNW,296,3.5,3.5,97,0.00,CLR,,0.00,0.0,WeatherDisplay:10.37,2013-03-08 09:47:00,
2013-03-08 04:52:00,26.5,25.8,29.97,North,360,9.2,9.2,97,0.00,CLR,,0.00,0.0,WeatherDisplay:10.37,2013-03-08 09:52:00,
2013-03-08 04:57:00,26.5,25.8,29.97,WNW,290,4.0,4.0,97,0.00,CLR,,0.00,0.0,WeatherDisplay:10.37,2013-03-08 09:57:00,
2013-03-08 05:02:00,26.4,25.7,29.97,North,350,3.5,3.5,97,0.00,CLR,,0.00,0.0,WeatherDisplay:10.37,2013-03-08 10:02:00,
2013-03-08 05:07:00,26.4,25.7,29.97,NW,313,3.5,3.5,97,0.00,CLR,,0.00,0.0,WeatherDisplay:10.37,2013-03-08 10:07:00,
2013-03-08 05:12:00,26.4,25.7,29.97,NW,307,3.5,3.5,97,0.00,CLR,,0.00,0.0,WeatherDisplay:10.37,2013-03-08 10:12:00,
2013-03-08 05:17:00,26.4,25.7,29.97,NNW,336,3.5,3.5,97,0.00,CLR,,0.00,0.0,WeatherDisplay:10.37,2013-03-08 10:17:00,
2013-03-08 05:22:00,26.4,25.7,29.97,NE,47,3.5,3.5,97,0.00,CLR,,0.00,0.0,WeatherDisplay:10.37,2013-03-08 10:22:00,
2013-03-08 05:27:00,26.3,25.6,29.97,West,265,3.5,3.5,97,0.00,CLR,,0.00,0.0,WeatherDisplay:10.37,2013-03-08 10:27:00,
2013-03-08 05:32:00,26.3,25.6,29.97,WNW,286,3.5,3.5,97,0.00,CLR,,0.00,0.0,WeatherDisplay:10.37,2013-03-08 10:32:00,
2013-03-08 05:37:00,26.3,25.6,29.98,NW,307,5.8,5.8,97,0.00,CLR,,0.00,0.0,WeatherDisplay:10.37,2013-03-08 10:37:00,
2013-03-08 05:42:00,26.3,25.6,29.98,WNW,302,6.9,6.9,97,0.00,CLR,,0.00,0.0,WeatherDisplay:10.37,2013-03-08 10:42:00,
2013-03-08 05:47:00,26.3,25.6,29.98,SE,142,2.3,2.3,97,0.00,CLR,,0.00,0.0,WeatherDisplay:10.37,2013-03-08 10:47:00,
2013-03-08 05:52:00,26.3,25.6,29.98,East,84,3.5,3.5,97,0.00,CLR,,0.00,0.0,WeatherDisplay:10.37,2013-03-08 10:52:00,
2013-03-08 05:57:00,26.2,25.5,29.98,NNW,340,2.3,2.3,97,0.00,CLR,,0.00,0.0,WeatherDisplay:10.37,2013-03-08 10:57:00,
2013-03-08 06:02:00,26.2,25.5,29.98,NNW,343,2.3,2.3,97,0.00,CLR,,0.00,0.0,WeatherDisplay:10.37,2013-03-08 11:02:00,
2013-03-08 06:07:00,26.2,25.5,29.98,NNE,13,2.3,2.3,97,0.00,CLR,,0.00,0.0,WeatherDisplay:10.37,2013-03-08 11:07:00,
2013-03-08 06:12:00,26.2,25.5,29.98,NW,312,3.5,3.5,97,0.00,CLR,,0.00,0.0,WeatherDisplay:10.37,2013-03-08 11:12:00,
2013-03-08 06:17:00,26.2,25.5,29.98,NNE,22,2.3,2.3,97,0.00,CLR,,0.00,0.0,WeatherDisplay:10.37,2013-03-08 11:17:00,
2013-03-08 06:22:00,26.2,25.5,29.98,NW,308,4.6,4.6,97,0.00,CLR,,0.00,0.0,WeatherDisplay:10.37,2013-03-08 11:22:00,
2013-03-08 06:27:00,26.1,25.4,29.98,NW,326,4.6,4.6,97,0.00,CLR,,0.00,0.0,WeatherDisplay:10.37,2013-03-08 11:27:00,
2013-03-08 06:32:00,26.1,25.4,29.98,West,278,5.8,5.8,97,0.00,CLR,,0.00,0.0,WeatherDisplay:10.37,2013-03-08 11:32:00,
2013-03-08 06:37:00,26.1,25.4,29.98,NE,52,3.5,3.5,97,0.00,CLR,,0.00,0.0,WeatherDisplay:10.37,2013-03-08 11:37:00,
2013-03-08 06:42:00,26.1,25.4,29.98,NE,36,3.5,3.5,97,0.00,CLR,,0.00,0.0,WeatherDisplay:10.37,2013-03-08 11:42:00,
2013-03-08 06:47:00,26.1,25.4,29.98,NNW,331,5.8,5.8,97,0.00,CLR,,0.00,0.0,WeatherDisplay:10.37,2013-03-08 11:47:00,
2013-03-08 06:52:00,26.1,25.4,29.98,WNW,290,2.3,2.3,97,0.00,CLR,,0.00,0.0,WeatherDisplay:10.37,2013-03-08 11:52:00,
2013-03-08 06:57:00,26.1,25.4,29.99,NW,304,3.5,3.5,97,0.00,CLR,,0.00,0.0,WeatherDisplay:10.37,2013-03-08 11:57:00,
2013-03-08 07:58:00,26.1,25.4,29.99,West,281,2.0,2.0,97,0.00,CLR,,0.00,0.0,WeatherDisplay:10.37,2013-03-08 12:58:00,
2013-03-08 17:43:00,32.9,28.3,30.12,ENE,57,0.0,0.2,83,0.00,CLR,,0.00,0.0,WeatherDisplay:10.37,2013-03-08 22:43:00,
2013-03-08 17:48:00,32.8,28.2,30.13,NNW,348,0.0,0.2,83,0.00,CLR,,0.00,5.0,WeatherDisplay:10.37,2013-03-08 22:48:00,
2013-03-08 17:53:00,32.7,28.4,30.13,NNE,32,3.5,3.5,84,0.00,CLR,,0.00,0.0,WeatherDisplay:10.37,2013-03-08 22:53:00,
2013-03-08 17:58:00,32.6,28.3,30.13,WSW,240,1.1,1.1,84,0.00,CLR,,0.00,0.0,WeatherDisplay:10.37,2013-03-08 22:58:00,
2013-03-08 18:03:00,32.4,28.1,30.13,NW,325,2.0,2.0,84,0.00,CLR,,0.00,0.0,WeatherDisplay:10.37,2013-03-08 23:03:00,
2013-03-08 18:08:00,32.3,28.3,30.13,WNW,284,2.3,2.3,85,0.00,CLR,,0.00,0.0,WeatherDisplay:10.37,2013-03-08 23:08:00,
2013-03-08 18:13:00,32.2,28.2,30.14,West,262,2.3,0.0,85,0.00,CLR,,0.00,0.0,WeatherDisplay:10.37,2013-03-08 23:13:00,
2013-03-08 18:18:00,32.1,28.1,30.14,NW,316,2.3,0.0,85,0.00,CLR,,0.00,0.0,WeatherDisplay:10.37,2013-03-08 23:18:00,
2013-03-08 18:23:00,32.0,28.3,30.14,NW,313,1.1,1.1,86,0.00,CLR,,0.00,0.0,WeatherDisplay:10.37,2013-03-08 23:23:00,
2013-03-08 18:28:00,31.8,28.1,30.14,NW,315,3.5,0.0,86,0.00,CLR,,0.00,0.0,WeatherDisplay:10.37,2013-03-08 23:28:00,
2013-03-08 18:33:00,31.7,28.0,30.14,NE,48,3.5,0.0,86,0.00,CLR,,0.00,0.0,WeatherDisplay:10.37,2013-03-08 23:33:00,
2013-03-08 18:38:00,31.5,27.5,30.15,NNE,31,0.0,0.0,85,0.00,CLR,,0.00,0.0,WeatherDisplay:10.37,2013-03-08 23:38:00,
2013-03-08 18:43:00,31.3,27.3,30.15,NW,318,0.0,0.0,85,0.00,CLR,,0.00,0.0,WeatherDisplay:10.37,2013-03-08 23:43:00,
2013-03-08 18:48:00,31.1,27.4,30.15,NW,317,0.0,0.0,86,0.00,CLR,,0.00,0.0,WeatherDisplay:10.37,2013-03-08 23:48:00,
2013-03-08 18:53:00,30.8,27.1,30.15,North,355,1.1,0.0,86,0.00,CLR,,0.00,0.0,WeatherDisplay:10.37,2013-03-08 23:53:00,
2013-03-08 18:58:00,30.7,26.7,30.15,NNW,327,2.3,2.3,85,0.00,CLR,,0.00,0.0,WeatherDisplay:10.37,2013-03-08 23:58:00,
2013-03-08 19:03:00,30.4,26.7,30.16,WNW,298,1.1,1.2,86,0.00,CLR,,0.00,0.0,WeatherDisplay:10.37,2013-03-09 00:03:00,
2013-03-08 19:08:00,30.2,26.5,30.16,NW,304,1.1,0.0,86,0.00,CLR,,0.00,0.0,WeatherDisplay:10.37,2013-03-09 00:08:00,
2013-03-08 19:13:00,29.9,26.2,30.16,NW,304,2.3,0.0,86,0.00,CLR,,0.00,0.0,WeatherDisplay:10.37,2013-03-09 00:13:00,
2013-03-08 19:18:00,29.8,26.1,30.16,WNW,294,0.0,0.5,86,0.00,CLR,,0.00,0.0,WeatherDisplay:10.37,2013-03-09 00:18:00,
2013-03-08 19:23:00,29.5,25.8,30.17,WNW,293,0.0,0.0,86,0.00,CLR,,0.00,0.0,WeatherDisplay:10.37,2013-03-09 00:23:00,
2013-03-08 19:28:00,29.3,25.6,30.17,West,277,1.0,1.0,86,0.00,CLR,,0.00,0.0,WeatherDisplay:10.37,2013-03-09 00:28:00,
2013-03-08 19:33:00,29.0,25.3,30.17,NNW,335,0.0,0.0,86,0.00,CLR,,0.00,0.0,WeatherDisplay:10.37,2013-03-09 00:33:00,
2013-03-08 19:38:00,28.8,25.1,30.17,NW,311,2.3,2.3,86,0.00,CLR,,0.00,0.0,WeatherDisplay:10.37,2013-03-09 00:38:00,
2013-03-08 19:43:00,28.6,25.2,30.17,NW,310,0.0,0.0,87,0.00,CLR,,0.00,0.0,WeatherDisplay:10.37,2013-03-09 00:43:00,
2013-03-08 19:48:00,28.4,25.0,30.17,NW,309,0.0,0.0,87,0.00,CLR,,0.00,0.0,WeatherDisplay:10.37,2013-03-09 00:48:00,
2013-03-08 19:53:00,28.2,24.8,30.17,NE,40,3.5,3.5,87,0.00,CLR,,0.00,0.0,WeatherDisplay:10.37,2013-03-09 00:53:00,
2013-03-08 19:58:00,28.1,24.7,30.17,NE,40,0.0,0.0,87,0.00,CLR,,0.00,0.0,WeatherDisplay:10.37,2013-03-09 00:58:00,
2013-03-08 20:03:00,27.9,24.8,30.18,NE,38,0.0,0.0,88,0.00,CLR,,0.00,0.0,WeatherDisplay:10.37,2013-03-09 01:03:00,
2013-03-08 20:08:00,27.7,24.6,30.18,NNW,327,0.0,0.0,88,0.00,CLR,,0.00,0.0,WeatherDisplay:10.37,2013-03-09 01:08:00,
2013-03-08 20:13:00,27.6,24.5,30.18,NW,312,0.0,0.0,88,0.00,CLR,,0.00,0.0,WeatherDisplay:10.37,2013-03-09 01:13:00,
2013-03-08 20:18:00,27.4,24.3,30.18,NW,312,0.0,0.2,88,0.00,CLR,,0.00,0.0,WeatherDisplay:10.37,2013-03-09 01:18:00,
2013-03-08 20:23:00,27.2,24.4,30.18,NW,311,0.0,0.0,89,0.00,CLR,,0.00,0.0,WeatherDisplay:10.37,2013-03-09 01:23:00,
2013-03-08 20:28:00,27.1,24.3,30.18,NW,312,0.0,0.0,89,0.00,CLR,,0.00,0.0,WeatherDisplay:10.37,2013-03-09 01:28:00,
2013-03-08 20:33:00,26.9,24.1,30.18,ENE,75,1.0,1.0,89,0.00,CLR,,0.00,0.0,WeatherDisplay:10.37,2013-03-09 01:33:00,
2013-03-08 20:38:00,26.8,24.0,30.18,East,89,0.0,0.0,89,0.00,CLR,,0.00,0.0,WeatherDisplay:10.37,2013-03-09 01:38:00,
2013-03-08 20:43:00,26.7,23.9,30.18,East,89,0.0,0.0,89,0.00,CLR,,0.00,0.0,WeatherDisplay:10.37,2013-03-09 01:43:00,
2013-03-08 20:48:00,26.5,23.7,30.18,East,86,0.0,0.0,89,0.00,CLR,,0.00,0.0,WeatherDisplay:10.37,2013-03-09 01:48:00,
2013-03-08 20:53:00,26.3,23.8,30.19,East,86,0.0,0.0,90,0.00,CLR,,0.00,0.0,WeatherDisplay:10.37,2013-03-09 01:53:00,
2013-03-08 20:58:00,26.2,23.4,30.19,East,86,0.0,0.0,89,0.00,CLR,,0.00,0.0,WeatherDisplay:10.37,2013-03-09 01:58:00,
2013-03-08 21:03:00,26.0,23.5,30.19,NW,315,0.0,0.8,90,0.00,CLR,,0.00,0.0,WeatherDisplay:10.37,2013-03-09 02:03:00,
2013-03-08 21:08:00,25.8,23.3,30.19,NW,309,0.0,0.0,90,0.00,CLR,,0.00,0.0,WeatherDisplay:10.37,2013-03-09 02:08:00,
2013-03-08 21:13:00,25.7,23.2,30.19,WNW,292,0.0,0.0,90,0.00,CLR,,0.00,0.0,WeatherDisplay:10.37,2013-03-09 02:13:00,
2013-03-08 21:18:00,25.5,23.0,30.20,WNW,295,1.1,1.1,90,0.00,CLR,,0.00,0.0,WeatherDisplay:10.37,2013-03-09 02:18:00,
2013-03-08 21:23:00,25.4,22.9,30.20,WNW,282,1.1,0.0,90,0.00,CLR,,0.00,0.0,WeatherDisplay:10.37,2013-03-09 02:23:00,
2013-03-08 21:28:00,25.3,22.8,30.20,WNW,294,1.1,0.0,90,0.00,CLR,,0.00,0.0,WeatherDisplay:10.37,2013-03-09 02:28:00,
2013-03-08 21:33:00,25.2,22.7,30.20,WNW,299,1.1,1.1,90,0.00,CLR,,0.00,0.0,WeatherDisplay:10.37,2013-03-09 02:33:00,
2013-03-08 21:38:00,25.1,22.8,30.20,WNW,302,0.0,0.0,91,0.00,CLR,,0.00,0.0,WeatherDisplay:10.37,2013-03-09 02:38:00,
2013-03-08 21:43:00,25.0,22.7,30.20,WNW,302,0.0,0.1,91,0.00,CLR,,0.00,0.0,WeatherDisplay:10.37,2013-03-09 02:43:00,
2013-03-08 21:48:00,24.9,22.6,30.20,NW,305,2.3,0.0,91,0.00,CLR,,0.00,0.0,WeatherDisplay:10.37,2013-03-09 02:48:00,
2013-03-08 21:53:00,24.9,22.6,30.20,WNW,285,0.0,0.0,91,0.00,CLR,,0.00,0.0,WeatherDisplay:10.37,2013-03-09 02:53:00,
2013-03-08 21:58:00,24.8,22.5,30.20,WNW,285,0.0,0.0,91,0.00,CLR,,0.00,0.0,WeatherDisplay:10.37,2013-03-09 02:58:00,
2013-03-08 22:03:00,24.8,22.5,30.19,WSW,246,1.0,0.0,91,0.00,CLR,,0.00,0.0,WeatherDisplay:10.37,2013-03-09 03:03:00,
2013-03-08 22:08:00,24.7,22.4,30.19,WSW,246,0.0,0.0,91,0.00,CLR,,0.00,0.0,WeatherDisplay:10.37,2013-03-09 03:08:00,
2013-03-08 22:13:00,24.6,22.3,30.19,ENE,71,0.0,0.0,91,0.00,CLR,,0.00,0.0,WeatherDisplay:10.37,2013-03-09 03:13:00,
2013-03-08 22:18:00,24.5,22.2,30.19,NE,44,2.3,0.0,91,0.00,CLR,,0.00,0.0,WeatherDisplay:10.37,2013-03-09 03:18:00,
2013-03-08 22:23:00,24.4,22.2,30.19,NE,44,1.0,1.0,91,0.00,CLR,,0.00,0.0,WeatherDisplay:10.37,2013-03-09 03:23:00,
2013-03-08 22:28:00,24.3,22.3,30.19,North,5,1.0,1.0,92,0.00,CLR,,0.00,0.0,WeatherDisplay:10.37,2013-03-09 03:28:00,
2013-03-08 22:33:00,24.2,22.2,30.19,NNE,22,0.0,0.4,92,0.00,CLR,,0.00,0.0,WeatherDisplay:10.37,2013-03-09 03:33:00,
2013-03-08 22:38:00,24.1,22.1,30.19,ENE,59,0.0,0.0,92,0.00,CLR,,0.00,0.0,WeatherDisplay:10.37,2013-03-09 03:38:00,
2013-03-08 22:43:00,24.1,22.1,30.19,North,5,3.5,3.5,92,0.00,CLR,,0.00,0.0,WeatherDisplay:10.37,2013-03-09 03:43:00,
2013-03-08 22:48:00,24.1,22.1,30.19,NNE,12,0.0,0.0,92,0.00,CLR,,0.00,0.0,WeatherDisplay:10.37,2013-03-09 03:48:00,
2013-03-08 22:53:00,24.1,22.1,30.19,ESE,118,2.3,2.3,92,0.00,CLR,,0.00,0.0,WeatherDisplay:10.37,2013-03-09 03:53:00,
2013-03-08 22:58:00,24.0,22.0,30.19,NNW,327,2.0,2.0,92,0.00,CLR,,0.00,0.0,WeatherDisplay:10.37,2013-03-09 03:58:00,
2013-03-08 23:03:00,24.1,22.1,30.19,North,349,0.0,0.0,92,0.00,CLR,,0.00,0.0,WeatherDisplay:10.37,2013-03-09 04:03:00,
2013-03-08 23:08:00,24.1,22.4,30.19,East,94,1.0,1.0,93,0.00,CLR,,0.00,0.0,WeatherDisplay:10.37,2013-03-09 04:08:00,
2013-03-08 23:13:00,24.1,22.4,30.19,NW,318,0.0,0.3,93,0.00,CLR,,0.00,0.0,WeatherDisplay:10.37,2013-03-09 04:13:00,
2013-03-08 23:18:00,24.2,22.5,30.18,NE,49,1.0,1.0,93,0.00,CLR,,0.00,0.0,WeatherDisplay:10.37,2013-03-09 04:18:00,
2013-03-08 23:23:00,24.3,22.6,30.18,NW,306,1.1,1.1,93,0.00,CLR,,0.00,0.0,WeatherDisplay:10.37,2013-03-09 04:23:00,
2013-03-08 23:28:00,24.4,22.7,30.18,ENE,62,3.5,0.0,93,0.00,CLR,,0.00,0.0,WeatherDisplay:10.37,2013-03-09 04:28:00,
2013-03-08 23:33:00,24.6,22.9,30.19,NW,311,2.0,2.0,93,0.00,CLR,,0.00,0.0,WeatherDisplay:10.37,2013-03-09 04:33:00,
2013-03-08 23:38:00,24.7,23.0,30.19,NNW,344,1.1,1.1,93,0.00,CLR,,0.00,0.0,WeatherDisplay:10.37,2013-03-09 04:38:00,
2013-03-08 23:43:00,24.8,23.1,30.19,North,5,3.5,3.5,93,0.00,CLR,,0.00,0.0,WeatherDisplay:10.37,2013-03-09 04:43:00,
2013-03-08 23:48:00,24.8,23.1,30.19,WNW,301,3.5,3.5,93,0.00,CLR,,0.00,0.0,WeatherDisplay:10.37,2013-03-09 04:48:00,
2013-03-08 23:53:00,24.9,23.2,30.19,NE,52,2.3,2.3,93,0.00,CLR,,0.00,0.0,WeatherDisplay:10.37,2013-03-09 04:53:00,
2013-03-08 23:58:00,24.9,22.9,30.19,ENE,61,1.1,1.1,92,0.00,CLR,,0.00,0.0,WeatherDisplay:10.37,2013-03-09 04:58:00,